Regional Weather Roundup
Issued by NWS

Home | Current Version | Previous Version | Text Only | Print | Product List | Glossary On
Versions: 1 2 3 4 5 6 7 8 9 10 11 12 13 14 15 16 17 18 19 20 21 22 23 24 25 26 27 28 29 30 31 32 33 34 35 36 37 38 39 40 41 42 43 44 45 46 47 48 49 50
000
ASUS43 KLSX 211057
RWRMO

WEATHER SUMMARY FOR MISSOURI
NATIONAL WEATHER SERVICE SPRINGFIELD MO
500 AM CST TUE NOV 21 2017

NOTE: "FAIR" INDICATES FEW OR NO CLOUDS BELOW 12,000 FEET WITH NO
       SIGNIFICANT WEATHER AND/OR OBSTRUCTIONS TO VISIBILITY.
       CURRENT SKY AND/OR WEATHER CONDITIONS ARE NOT AVAILABLE FOR
       CHILLICOTHE AND FARMINGTON.

MOZ001>031-035>038-043-044-053-054-211200-
...NORTHERN AND WESTERN MISSOURI...

CITY           SKY/WX    TMP DP  RH WIND       PRES   REMARKS
KANSAS CTY INT CLOUDY    47  32  56 SW9       29.76R
LEE`S SUMMIT   PTCLDY    46  32  58 SW10      29.78R
ST JOSEPH      CLOUDY    37  32  82 N7        29.78R
CHILLICOTHE      N/A     38  31  76 CALM      29.78R

$$
MOZ066>068-077>081-088>096-101>105-211200-
...SOUTHWEST MISSOURI...

CITY           SKY/WX    TMP DP  RH WIND       PRES   REMARKS
SPRINGFIELD    MOCLDY    42  32  67 S10       29.83S
JOPLIN         CLOUDY    45  34  65 S9        29.82S

$$
MOZ032>034-039>042-045>050-055>058-069>072-211200-
...CENTRAL MISSOURI...

CITY           SKY/WX    TMP DP  RH WIND       PRES   REMARKS
COLUMBIA       NOT AVBL
JEFFERSON CITY PTCLDY    45  31  58 SE6       29.81S
ROLLA          PTCLDY    43  30  60 S14       29.83F
SEDALIA        PTCLDY    48  35  60 SW12      29.80R
WARRENSBURG    PTCLDY    46  32  57 S6        29.78S

$$
MOZ051-052-059>065-211200-
...EAST CENTRAL MISSOURI...

CITY           SKY/WX    TMP DP  RH WIND       PRES   REMARKS
ST LOUIS INTL  MOCLDY    45  30  55 S6        29.83S

$$
MOZ072>076-082>087-097>100-106>115-211200-
...SOUTH CENTRAL AND SOUTHEAST MISSOURI...

CITY           SKY/WX    TMP DP  RH WIND       PRES   REMARKS
CAPE GIRARDEAU CLEAR     36  28  73 S5        29.96S
POPLAR BLUFF   CLEAR     35  29  78 CALM      29.96R
WEST PLAINS    CLOUDY    36  27  69 SE3       29.90R

$$



USA.gov is the U.S. government's official web portal to all federal, state and local government web resources and services.